Weather in Talalaivka

Ukraine / Chernihiv Region     50˚50′13″N   33˚08′26″E
temp.,
°C
wind,
m/s
gust,
m/s
humid.,
%
clouds,
%
prec.,
mm/h
press.,
hPa
HPBL,
m
28 november, sat
sat2823:00+2˚wsw3788100 0.0 1018282
02:00+2˚wsw3688100 0.0 1018315
05:00+2˚ssw2493100 0.0 1018178
08:00+3˚s2497100 0.2 1018179
11:00+3˚se2297100 1.9 1019155
14:00+3˚e2398100 3.4 1018128
17:00+3˚sse2298100 2.4 1018148
20:00+3˚sse1197100 3.5 101874
29 november, sun
sun2923:00+3˚s2398100 0.7 1018157
02:00+3˚wsw1398100 1.8 1019169
05:00+3˚wnw2397100 1.4 1018188
08:00+2˚nnw3497100 3.5 1019224
11:00+2˚nw2396100 1.2 1020165
14:00+2˚nw2397100 2.3 1021150
17:00+2˚nnw1197100 1.1 102165
20:00+3˚ne1198100 1.4 102358
30 november, mon
mon3023:00+3˚ese2397100 0.4 1023145
02:00+4˚e1295100 0.6 102264
05:00+4˚se2598100 1.9 1022220
08:00+4˚se2698100 2.9 1023238
11:00+4˚sse3797100 1.8 1023354
14:00+4˚s3796100 4.3 1024393
17:00+3˚nnw2397100 2.6 1024202
20:00+2˚nnw4697100 5.3 1025207
1 december, tue
tue123:00+1˚nnw4697100 2.8 1025203
02:00nnw6997100 5.3 1026382
05:00n5898100 1.6 1026391
08:00n5897100 2.4 1027353
11:00n5798100 0.9 1027307
14:00+1˚nne3499100 1.3 1027155
17:00+2˚ene2494100 0.1 1027165
20:00e3598100 0.1 1028271
2 december, wed
wed223:00e3597100 0.1 1028294
02:00e3596100 0.1 1028355
05:00ese3595100 0.1 1027343
08:00−1˚ese359499 0.1 1028373
11:00ese359199 0.1 1028431
14:00ese3488100 0.1 1027459
17:00ese3494100 0.1 1028333
20:00ese3596100 0.1 1028279